HZ102 OEGS-OERK

Flight info

Callsign HZ102
Flight time 0h 33m
Altitude 25000
Route GAS G662 SIVIS
Aircraft B738/M-SDE2E3FGHIRWXY/LB1

Departure

Time 2026-04-26 17:06
Airport Prince Naif bin Abdulaziz International Airport (OEGS)

Arrival

Time 2026-04-26 17:40
Airport King Khalid International Airport (OERK)
Time Latitude Longitude Altitude Speed Heading
2026-04-26 16:51 26.30313 43.77047 2134 ft 0 kts 243°
2026-04-26 17:00 26.30324 43.77071 2135 ft 2 kts 244°
2026-04-26 17:00 26.30338 43.77104 2135 ft 2 kts 268°
2026-04-26 17:00 26.30334 43.77122 2135 ft 2 kts 304°
2026-04-26 17:01 26.30325 43.77132 2135 ft 1 kts 326°
2026-04-26 17:01 26.30324 43.77133 2135 ft 0 kts 327°
2026-04-26 17:03 26.30339 43.77125 2134 ft 6 kts 333°
2026-04-26 17:03 26.30400 43.77090 2135 ft 14 kts 333°
2026-04-26 17:03 26.30511 43.77029 2135 ft 21 kts 333°
2026-04-26 17:03 26.30662 43.76943 2136 ft 27 kts 333°
2026-04-26 17:04 26.30835 43.76844 2136 ft 27 kts 333°
2026-04-26 17:04 26.30998 43.76751 2136 ft 25 kts 333°
2026-04-26 17:04 26.31150 43.76665 2137 ft 24 kts 333°
2026-04-26 17:04 26.31275 43.76602 2137 ft 16 kts 349°
2026-04-26 17:05 26.31389 43.76628 2138 ft 18 kts 18°
2026-04-26 17:05 26.31447 43.76733 2134 ft 18 kts 114°
2026-04-26 17:05 26.31343 43.76813 2135 ft 22 kts 153°
2026-04-26 17:05 26.30998 43.77007 2135 ft 92 kts 153°
2026-04-26 17:06 26.30239 43.77443 2144 ft 150 kts 155°
2026-04-26 17:06 26.29294 43.77963 2650 ft 157 kts 153°
2026-04-26 17:06 26.28270 43.78517 3258 ft 163 kts 152°
2026-04-26 17:06 26.27243 43.79076 3955 ft 167 kts 153°
2026-04-26 17:07 26.26127 43.79690 4336 ft 195 kts 152°
2026-04-26 17:07 26.24837 43.80401 4588 ft 223 kts 153°
2026-04-26 17:07 26.23396 43.81236 4818 ft 244 kts 153°
2026-04-26 17:07 26.21926 43.82279 5222 ft 258 kts 138°
2026-04-26 17:08 26.20933 43.83992 5622 ft 278 kts 111°
2026-04-26 17:08 26.20729 43.86206 6051 ft 297 kts 82°
2026-04-26 17:08 26.21371 43.88419 6733 ft 304 kts 66°
2026-04-26 17:08 26.22253 43.90572 7559 ft 306 kts 71°
2026-04-26 17:09 26.22574 43.92892 8344 ft 304 kts 98°
2026-04-26 17:09 26.22294 43.94437 8898 ft 301 kts 113°
2026-04-26 17:09 26.21110 43.97234 9941 ft 304 kts 121°
2026-04-26 17:09 26.20113 43.99364 10457 ft 321 kts 121°
2026-04-26 17:10 26.19030 44.01645 10644 ft 346 kts 121°
2026-04-26 17:10 26.17871 44.04094 10828 ft 369 kts 121°
2026-04-26 17:10 26.16657 44.06678 11239 ft 382 kts 120°
2026-04-26 17:10 26.15429 44.09319 11902 ft 386 kts 120°
2026-04-26 17:11 26.14194 44.11985 12668 ft 389 kts 120°
2026-04-26 17:11 26.12952 44.14674 13395 ft 393 kts 120°
2026-04-26 17:11 26.11691 44.17402 14048 ft 400 kts 120°
2026-04-26 17:11 26.10408 44.20174 14730 ft 406 kts 120°
2026-04-26 17:12 26.07785 44.25837 16081 ft 417 kts 120°
2026-04-26 17:12 26.06443 44.28731 16728 ft 423 kts 120°
2026-04-26 17:13 26.03707 44.34624 17994 ft 434 kts 121°
2026-04-26 17:13 26.02313 44.37623 18595 ft 440 kts 121°
2026-04-26 17:13 25.99477 44.43727 19743 ft 450 kts 121°
2026-04-26 17:14 25.98050 44.46795 20299 ft 455 kts 121°
2026-04-26 17:14 25.95121 44.53082 21392 ft 462 kts 121°
2026-04-26 17:14 25.93635 44.56269 21869 ft 467 kts 122°
2026-04-26 17:15 25.90624 44.62720 22805 ft 474 kts 122°
2026-04-26 17:15 25.89098 44.65988 23247 ft 478 kts 122°
2026-04-26 17:15 25.87560 44.69277 23684 ft 481 kts 122°
2026-04-26 17:16 25.86012 44.72583 24093 ft 485 kts 122°
2026-04-26 17:16 25.84443 44.75925 24470 ft 489 kts 122°
2026-04-26 17:16 25.82867 44.79281 24807 ft 493 kts 122°
2026-04-26 17:16 25.81274 44.82671 24987 ft 498 kts 122°
2026-04-26 17:17 25.79657 44.86109 24986 ft 505 kts 122°
2026-04-26 17:17 25.78023 44.89583 25000 ft 511 kts 122°
2026-04-26 17:17 25.76374 44.93088 25003 ft 515 kts 122°
2026-04-26 17:17 25.74711 44.96620 25001 ft 519 kts 122°
2026-04-26 17:18 25.73036 45.00176 24994 ft 522 kts 122°
2026-04-26 17:18 25.71361 45.03734 24979 ft 513 kts 122°
2026-04-26 17:18 25.69756 45.07156 24974 ft 491 kts 123°
2026-04-26 17:18 25.68163 45.10527 24991 ft 497 kts 123°
2026-04-26 17:19 25.64938 45.17423 25009 ft 510 kts 122°
2026-04-26 17:19 25.63348 45.20965 25006 ft 516 kts 121°
2026-04-26 17:19 25.61763 45.24541 25002 ft 520 kts 121°
2026-04-26 17:20 25.60165 45.28154 25000 ft 523 kts 121°
2026-04-26 17:20 25.59101 45.30552 25002 ft 525 kts 121°
2026-04-26 17:20 25.56956 45.35382 24898 ft 516 kts 121°
2026-04-26 17:20 25.55384 45.38910 24171 ft 506 kts 121°
2026-04-26 17:21 25.53836 45.42373 23444 ft 497 kts 122°
2026-04-26 17:21 25.52312 45.45772 22671 ft 489 kts 121°
2026-04-26 17:21 25.50806 45.49119 21924 ft 481 kts 121°
2026-04-26 17:21 25.49324 45.52410 21143 ft 475 kts 121°
2026-04-26 17:22 25.47858 45.55658 20372 ft 469 kts 121°
2026-04-26 17:22 25.46431 45.58819 19632 ft 462 kts 121°
2026-04-26 17:22 25.45001 45.61984 18878 ft 457 kts 120°
2026-04-26 17:22 25.43591 45.65107 18134 ft 451 kts 120°
2026-04-26 17:23 25.42199 45.68186 17395 ft 445 kts 120°
2026-04-26 17:23 25.40823 45.71230 16659 ft 439 kts 120°
2026-04-26 17:23 25.39466 45.74228 15913 ft 434 kts 120°
2026-04-26 17:23 25.38125 45.77192 15187 ft 428 kts 120°
2026-04-26 17:24 25.36802 45.80115 14469 ft 422 kts 119°
2026-04-26 17:24 25.35498 45.82993 13746 ft 416 kts 119°
2026-04-26 17:24 25.34208 45.85836 13018 ft 411 kts 119°
2026-04-26 17:24 25.32935 45.88641 12306 ft 405 kts 119°
2026-04-26 17:25 25.31682 45.91399 11605 ft 399 kts 119°
2026-04-26 17:25 25.30447 45.94118 10922 ft 394 kts 119°
2026-04-26 17:25 25.29245 45.96765 10759 ft 375 kts 119°
2026-04-26 17:25 25.28103 45.99280 10595 ft 358 kts 119°
2026-04-26 17:26 25.27009 46.01691 10451 ft 343 kts 119°
2026-04-26 17:26 25.25960 46.03995 10312 ft 329 kts 119°
2026-04-26 17:26 25.24952 46.06206 10185 ft 317 kts 119°
2026-04-26 17:26 25.23981 46.08335 10072 ft 305 kts 119°
2026-04-26 17:27 25.23044 46.10390 9904 ft 295 kts 119°
2026-04-26 17:27 25.22125 46.12401 9613 ft 291 kts 119°
2026-04-26 17:27 25.21213 46.14392 9305 ft 289 kts 119°
2026-04-26 17:27 25.20312 46.16362 9017 ft 286 kts 119°
2026-04-26 17:28 25.19420 46.18315 8717 ft 283 kts 119°
2026-04-26 17:28 25.18538 46.20244 8429 ft 280 kts 119°
2026-04-26 17:28 25.17678 46.22126 8143 ft 277 kts 119°
2026-04-26 17:28 25.16812 46.24017 7842 ft 275 kts 119°
2026-04-26 17:29 25.15952 46.25897 7538 ft 274 kts 119°
2026-04-26 17:29 25.15371 46.27165 7328 ft 272 kts 119°
2026-04-26 17:29 25.14242 46.29631 6914 ft 271 kts 119°
2026-04-26 17:29 25.13394 46.31481 6586 ft 269 kts 119°
2026-04-26 17:30 25.12559 46.33303 6436 ft 262 kts 119°
2026-04-26 17:30 25.11751 46.35067 6306 ft 253 kts 119°
2026-04-26 17:30 25.11166 46.36866 6167 ft 250 kts 96°
2026-04-26 17:30 25.11504 46.38714 6047 ft 248 kts 62°
2026-04-26 17:31 25.12671 46.40083 6016 ft 246 kts 38°
2026-04-26 17:31 25.14075 46.41169 5945 ft 249 kts 35°
2026-04-26 17:31 25.15493 46.42280 5765 ft 250 kts 39°
2026-04-26 17:31 25.16829 46.43491 5589 ft 248 kts 43°
2026-04-26 17:32 25.18076 46.44780 5408 ft 243 kts 46°
2026-04-26 17:32 25.19242 46.46109 5237 ft 238 kts 49°
2026-04-26 17:32 25.20304 46.47463 5108 ft 232 kts 53°
2026-04-26 17:32 25.21197 46.48907 4996 ft 222 kts 71°
2026-04-26 17:33 25.21329 46.50528 5007 ft 211 kts 104°
2026-04-26 17:33 25.20763 46.51994 5000 ft 207 kts 129°
2026-04-26 17:33 25.19726 46.53067 5005 ft 204 kts 146°
2026-04-26 17:34 25.17291 46.54668 4995 ft 204 kts 152°
2026-04-26 17:34 25.16066 46.55456 4993 ft 204 kts 151°
2026-04-26 17:34 25.14846 46.56241 4996 ft 203 kts 151°
2026-04-26 17:34 25.13644 46.57012 5005 ft 196 kts 151°
2026-04-26 17:35 25.12495 46.57746 5008 ft 192 kts 151°
2026-04-26 17:35 25.11336 46.58481 4926 ft 193 kts 151°
2026-04-26 17:35 25.10170 46.59220 4828 ft 193 kts 151°
2026-04-26 17:35 25.09043 46.59934 4694 ft 180 kts 151°
2026-04-26 17:36 25.07994 46.60598 4551 ft 172 kts 151°
2026-04-26 17:36 25.06951 46.61257 4294 ft 173 kts 151°
2026-04-26 17:36 25.05926 46.61904 4040 ft 165 kts 151°
2026-04-26 17:36 25.04968 46.62510 3846 ft 150 kts 152°
2026-04-26 17:37 25.04096 46.63061 3578 ft 139 kts 152°
2026-04-26 17:37 25.03270 46.63583 3389 ft 135 kts 152°
2026-04-26 17:37 25.02457 46.64096 3201 ft 135 kts 152°
2026-04-26 17:38 25.00815 46.65131 2840 ft 136 kts 152°
2026-04-26 17:38 25.00001 46.65646 2709 ft 135 kts 151°
2026-04-26 17:38 24.99191 46.66161 2527 ft 134 kts 152°
2026-04-26 17:38 24.98374 46.66680 2354 ft 137 kts 151°
2026-04-26 17:39 24.97540 46.67209 2170 ft 139 kts 151°
2026-04-26 17:39 24.96709 46.67735 2036 ft 135 kts 152°
2026-04-26 17:39 24.95972 46.68198 2033 ft 103 kts 150°
2026-04-26 17:39 24.95476 46.68512 2028 ft 66 kts 150°
2026-04-26 17:40 24.95153 46.68718 2031 ft 35 kts 150°
2026-04-26 17:40 24.95090 46.68767 2034 ft 33 kts 137°
2026-04-26 17:40 24.94966 46.68962 2029 ft 16 kts 103°
2026-04-26 17:40 24.94973 46.69079 2036 ft 15 kts 66°
2026-04-26 17:41 24.94982 46.69166 2029 ft 12 kts 137°
2026-04-26 17:41 24.94914 46.69211 2032 ft 11 kts 152°
2026-04-26 17:41 24.94844 46.69255 2029 ft 12 kts 151°
2026-04-26 17:41 24.94746 46.69317 2035 ft 13 kts 150°
2026-04-26 17:42 24.94694 46.69349 2030 ft 13 kts 150°
2026-04-26 17:42 24.94617 46.69397 2032 ft 12 kts 150°
2026-04-26 17:42 24.94542 46.69446 2037 ft 13 kts 148°
2026-04-26 17:42 24.94519 46.69532 2030 ft 13 kts 69°
2026-04-26 17:43 24.94582 46.69653 2037 ft 15 kts 60°
2026-04-26 17:43 24.94616 46.69720 2040 ft 15 kts 60°
2026-04-26 17:43 24.94671 46.69824 2034 ft 16 kts 59°
2026-04-26 17:43 24.94725 46.69927 2032 ft 15 kts 60°
2026-04-26 17:44 24.94777 46.70025 2036 ft 15 kts 59°
2026-04-26 17:44 24.94830 46.70125 2033 ft 16 kts 60°
2026-04-26 17:44 24.94886 46.70233 2036 ft 17 kts 60°
2026-04-26 17:44 24.94946 46.70346 2032 ft 17 kts 60°
2026-04-26 17:45 24.95004 46.70456 2034 ft 16 kts 60°
2026-04-26 17:45 24.95059 46.70562 2033 ft 16 kts 59°
2026-04-26 17:45 24.95113 46.70664 2033 ft 15 kts 61°
2026-04-26 17:45 24.95165 46.70763 2037 ft 15 kts 60°
2026-04-26 17:46 24.95217 46.70863 2030 ft 16 kts 60°
2026-04-26 17:46 24.95273 46.70970 2035 ft 17 kts 60°
2026-04-26 17:46 24.95331 46.71078 2038 ft 13 kts 60°
2026-04-26 17:46 24.95367 46.71147 2033 ft 11 kts 59°
2026-04-26 17:47 24.95406 46.71222 2036 ft 10 kts 59°
2026-04-26 17:47 24.95425 46.71270 2031 ft 11 kts 88°
2026-04-26 17:47 24.95351 46.71335 2030 ft 11 kts 151°
2026-04-26 17:47 24.95281 46.71379 2037 ft 12 kts 150°
2026-04-26 17:48 24.95207 46.71425 2031 ft 12 kts 150°
2026-04-26 17:48 24.95133 46.71472 2038 ft 13 kts 150°
2026-04-26 17:48 24.95054 46.71523 2033 ft 14 kts 150°
2026-04-26 17:48 24.94970 46.71576 2038 ft 15 kts 150°
2026-04-26 17:49 24.94879 46.71633 2035 ft 15 kts 150°
2026-04-26 17:49 24.94835 46.71719 2037 ft 15 kts 68°
2026-04-26 17:49 24.94888 46.71820 2036 ft 15 kts 60°
2026-04-26 17:49 24.94941 46.71920 2033 ft 15 kts 60°
2026-04-26 17:50 24.94995 46.72024 2035 ft 16 kts 60°
2026-04-26 17:50 24.95053 46.72135 2037 ft 17 kts 60°
2026-04-26 17:50 24.95115 46.72253 2033 ft 18 kts 60°
2026-04-26 17:50 24.95176 46.72371 2040 ft 17 kts 60°
2026-04-26 17:51 24.95236 46.72485 2038 ft 17 kts 56°
2026-04-26 17:51 24.95338 46.72473 2038 ft 17 kts 329°
2026-04-26 17:51 24.95442 46.72408 2034 ft 17 kts 330°
2026-04-26 17:51 24.95545 46.72342 2033 ft 17 kts 330°
2026-04-26 17:52 24.95649 46.72277 2031 ft 18 kts 330°
2026-04-26 17:52 24.95761 46.72206 2038 ft 18 kts 330°
2026-04-26 17:52 24.95850 46.72149 2038 ft 12 kts 330°
2026-04-26 17:52 24.95917 46.72192 2036 ft 13 kts 61°
2026-04-26 17:53 24.95964 46.72283 2036 ft 14 kts 60°
2026-04-26 17:53 24.96013 46.72375 2034 ft 12 kts 60°
2026-04-26 17:53 24.96059 46.72435 2037 ft 11 kts 21°
2026-04-26 17:54 24.96207 46.72362 2030 ft 13 kts 329°
2026-04-26 17:54 24.96290 46.72310 2036 ft 15 kts 330°
2026-04-26 17:54 24.96370 46.72258 2033 ft 8 kts 329°
2026-04-26 17:54 24.96404 46.72254 2033 ft 5 kts 39°
2026-04-26 17:55 24.96426 46.72291 2036 ft 6 kts 60°
2026-04-26 17:55 24.96430 46.72298 2038 ft 0 kts 59°